ETD58 EBBR-OMAA

Flight info

Callsign ETD58
Flight time N/A
Altitude 37000
Route SOPOK Y863 ROPUV L607 EMGOD DCT BOMBI DCT DETEV DCT DINKU M867 XERUM DCT BAVAX DCT RADIZ DCT VRANA DCT DIMIS DCT IPTES UL604 SALUN N705 MMA P751 DASUM Y234 FYM M872 WEJ/N0493F390 M872 BDB Y214 RAPMA DCT KUVSO DCT KATIT DCT DANUX DCT TANSU/N0516F330 G783 VAVIM P899 ROVOS
Aircraft A35K/H-SDE2E3GHIJ3J4J5LM1ORWXY/LB1D1

Departure

Time N/A
Airport Brussels Airport (EBBR)

Arrival

Time 2026-04-28 21:27
Airport Zayed International Airport (OMAA)
Time Latitude Longitude Altitude Speed Heading
2026-04-28 20:26 24.66702 39.47732 38950 ft 547 kts 126°
2026-04-28 20:26 24.59129 39.62205 38965 ft 545 kts 126°
2026-04-28 20:26 24.54001 39.77953 38965 ft 562 kts 101°
2026-04-28 20:27 24.52364 39.95117 38964 ft 562 kts 98°
2026-04-28 20:27 24.49095 40.28987 38964 ft 560 kts 99°
2026-04-28 20:28 24.45697 40.62938 38964 ft 558 kts 99°
2026-04-28 20:28 24.42215 40.96847 38971 ft 558 kts 99°
2026-04-28 20:29 24.38675 41.30653 38974 ft 557 kts 99°
2026-04-28 20:29 24.35088 41.64175 38972 ft 555 kts 99°
2026-04-28 20:30 24.29275 41.97187 38980 ft 548 kts 110°
2026-04-28 20:30 24.20767 42.29210 38984 ft 547 kts 110°
2026-04-28 20:31 24.12300 42.60962 38981 ft 546 kts 110°
2026-04-28 20:31 24.03722 42.92861 38978 ft 545 kts 110°
2026-04-28 20:32 23.95061 43.24718 38969 ft 545 kts 110°
2026-04-28 20:32 23.86364 43.56457 38965 ft 544 kts 110°
2026-04-28 20:33 23.77786 43.87897 38943 ft 545 kts 104°
2026-04-28 20:33 23.75011 44.21037 38937 ft 549 kts 97°
2026-04-28 20:34 23.72463 44.54332 38930 ft 549 kts 97°
2026-04-28 20:34 23.69847 44.87566 38929 ft 548 kts 97°
2026-04-28 20:35 23.67184 45.20467 38924 ft 547 kts 97°
2026-04-28 20:35 23.64437 45.53532 38914 ft 546 kts 97°
2026-04-28 20:36 23.61624 45.86536 38897 ft 546 kts 97°
2026-04-28 20:36 23.58731 46.19594 38907 ft 546 kts 97°
2026-04-28 20:37 23.55796 46.52337 38909 ft 546 kts 97°
2026-04-28 20:37 23.52783 46.85184 38893 ft 543 kts 98°
2026-04-28 20:38 23.49704 47.17967 38867 ft 543 kts 98°
2026-04-28 20:38 23.46565 47.50662 38851 ft 541 kts 98°
2026-04-28 20:39 23.43383 47.83094 38829 ft 540 kts 98°
2026-04-28 20:39 23.40121 48.15640 38802 ft 540 kts 98°
2026-04-28 20:40 23.37550 48.48146 38782 ft 538 kts 94°
2026-04-28 20:40 23.36331 48.80731 38774 ft 537 kts 95°
2026-04-28 20:41 23.34314 49.12831 38767 ft 532 kts 101°
2026-04-28 20:41 23.29721 49.44649 38768 ft 530 kts 101°
2026-04-28 20:42 23.25120 49.76119 38775 ft 525 kts 101°
2026-04-28 20:42 23.20460 50.07534 38782 ft 525 kts 101°
2026-04-28 20:43 23.15780 50.38652 38785 ft 525 kts 101°
2026-04-28 20:43 23.10992 50.70057 38785 ft 524 kts 101°
2026-04-28 20:44 23.06158 51.01330 38782 ft 525 kts 101°
2026-04-28 20:44 23.01263 51.32579 38782 ft 523 kts 101°
2026-04-28 20:45 22.96348 51.63546 38777 ft 524 kts 101°
2026-04-28 20:45 22.91339 51.94706 38779 ft 525 kts 102°
2026-04-28 20:46 22.86252 52.25943 38766 ft 525 kts 102°
2026-04-28 20:46 22.81344 52.57129 38774 ft 524 kts 98°
2026-04-28 20:47 22.77673 52.88534 38773 ft 525 kts 99°
2026-04-28 20:47 22.75967 53.02402 38781 ft 522 kts 99°
2026-04-28 20:48 22.75002 53.10205 38783 ft 522 kts 99°
2026-04-28 20:48 22.74036 53.17998 38785 ft 522 kts 99°
2026-04-28 20:49 22.73065 53.25789 38790 ft 521 kts 99°
2026-04-28 20:49 22.72097 53.33533 38780 ft 522 kts 99°
2026-04-28 20:50 22.71118 53.41331 38785 ft 522 kts 99°
2026-04-28 20:50 22.70135 53.49124 38786 ft 522 kts 99°
2026-04-28 20:51 22.69149 53.56919 38778 ft 522 kts 99°
2026-04-28 20:51 22.68164 53.64680 38785 ft 519 kts 99°
2026-04-28 20:52 22.67176 53.72425 38781 ft 519 kts 99°
2026-04-28 20:52 22.66189 53.80124 38783 ft 519 kts 99°
2026-04-28 20:53 22.64694 53.91745 38785 ft 519 kts 99°
2026-04-28 20:53 22.63691 53.99501 38785 ft 520 kts 99°
2026-04-28 20:54 22.62685 54.07255 38782 ft 520 kts 100°
2026-04-28 20:54 22.61680 54.14965 38776 ft 520 kts 100°
2026-04-28 20:55 22.60912 54.22765 38763 ft 522 kts 91°
2026-04-28 20:55 22.62065 54.30500 38780 ft 523 kts 71°
2026-04-28 20:56 22.64939 54.37718 38784 ft 523 kts 65°
2026-04-28 20:56 22.67577 54.43628 38780 ft 525 kts 64°
2026-04-28 20:57 22.70787 54.50754 38779 ft 526 kts 64°
2026-04-28 20:57 22.73969 54.57902 38774 ft 527 kts 64°
2026-04-28 20:58 22.77134 54.65073 38774 ft 527 kts 64°
2026-04-28 20:58 22.80267 54.72202 38774 ft 527 kts 65°
2026-04-28 20:59 22.83248 54.78997 38771 ft 527 kts 65°
2026-04-28 20:59 22.86398 54.86184 38771 ft 527 kts 65°
2026-04-28 21:00 22.89545 54.93372 38773 ft 527 kts 65°
2026-04-28 21:00 22.92667 55.00516 38783 ft 527 kts 65°
2026-04-28 21:01 22.95810 55.07717 38785 ft 527 kts 65°
2026-04-28 21:01 22.97376 55.11309 38672 ft 527 kts 65°
2026-04-28 21:01 22.98953 55.14892 38440 ft 526 kts 63°
2026-04-28 21:02 23.00839 55.18297 38218 ft 527 kts 53°
2026-04-28 21:02 23.03200 55.21325 37954 ft 525 kts 43°
2026-04-28 21:02 23.06011 55.23843 37685 ft 523 kts 31°
2026-04-28 21:02 23.09185 55.25742 37439 ft 518 kts 20°
2026-04-28 21:03 23.12574 55.27040 37189 ft 516 kts 14°
2026-04-28 21:03 23.16007 55.28130 36888 ft 513 kts 12°
2026-04-28 21:03 23.19403 55.29125 36324 ft 509 kts 11°
2026-04-28 21:03 23.22825 55.30095 35712 ft 507 kts 10°
2026-04-28 21:04 23.26242 55.31060 35071 ft 506 kts 10°
2026-04-28 21:04 23.29654 55.32033 34366 ft 507 kts 10°
2026-04-28 21:04 23.33067 55.33020 33621 ft 508 kts
2026-04-28 21:04 23.36485 55.34018 32829 ft 508 kts 10°
2026-04-28 21:05 23.39890 55.35021 32057 ft 507 kts
2026-04-28 21:05 23.43296 55.36028 31288 ft 507 kts
2026-04-28 21:05 23.46707 55.37038 30496 ft 508 kts
2026-04-28 21:05 23.50133 55.38053 29632 ft 510 kts
2026-04-28 21:06 23.53557 55.39066 28709 ft 511 kts
2026-04-28 21:06 23.56974 55.40080 28086 ft 505 kts 10°
2026-04-28 21:06 23.60353 55.41083 27478 ft 500 kts 10°
2026-04-28 21:06 23.63703 55.42078 26874 ft 495 kts 10°
2026-04-28 21:07 23.66964 55.43045 26286 ft 491 kts 10°
2026-04-28 21:07 23.70253 55.44020 25684 ft 487 kts 11°
2026-04-28 21:07 23.73512 55.44987 25098 ft 483 kts 11°
2026-04-28 21:07 23.76748 55.45946 24499 ft 480 kts 11°
2026-04-28 21:08 23.79961 55.46899 23917 ft 476 kts 11°
2026-04-28 21:08 23.83155 55.47847 23317 ft 473 kts 11°
2026-04-28 21:08 23.86319 55.48788 22662 ft 469 kts 11°
2026-04-28 21:08 23.89458 55.49722 22062 ft 465 kts 11°
2026-04-28 21:09 23.92526 55.50634 21483 ft 460 kts 11°
2026-04-28 21:09 23.95617 55.51552 20913 ft 456 kts 12°
2026-04-28 21:09 23.98675 55.52459 20333 ft 453 kts 12°
2026-04-28 21:09 24.01711 55.53362 19754 ft 449 kts 12°
2026-04-28 21:10 24.04727 55.54260 19153 ft 447 kts 12°
2026-04-28 21:10 24.07722 55.55154 18570 ft 445 kts 12°
2026-04-28 21:10 24.10671 55.56035 17938 ft 444 kts 12°
2026-04-28 21:10 24.13639 55.56922 17243 ft 441 kts 12°
2026-04-28 21:11 24.16581 55.57803 16663 ft 435 kts 12°
2026-04-28 21:11 24.19491 55.58674 16035 ft 430 kts 12°
2026-04-28 21:11 24.22426 55.59177 15350 ft 423 kts 358°
2026-04-28 21:11 24.24251 55.59030 14941 ft 416 kts 347°
2026-04-28 21:12 24.26905 55.57970 14501 ft 400 kts 327°
2026-04-28 21:12 24.28967 55.56057 14223 ft 380 kts 307°
2026-04-28 21:12 24.30196 55.53578 13973 ft 363 kts 285°
2026-04-28 21:12 24.30500 55.50883 13547 ft 354 kts 265°
2026-04-28 21:13 24.30052 55.48279 13230 ft 343 kts 256°
2026-04-28 21:13 24.29614 55.45744 12856 ft 335 kts 264°
2026-04-28 21:13 24.29621 55.43205 12387 ft 331 kts 275°
2026-04-28 21:13 24.29946 55.40721 11896 ft 328 kts 279°
2026-04-28 21:14 24.30357 55.38262 11381 ft 325 kts 280°
2026-04-28 21:14 24.30849 55.35863 11033 ft 318 kts 285°
2026-04-28 21:14 24.31498 55.33593 10814 ft 306 kts 287°
2026-04-28 21:14 24.32152 55.31449 10624 ft 295 kts 287°
2026-04-28 21:15 24.32803 55.29329 10335 ft 288 kts 287°
2026-04-28 21:15 24.33437 55.27264 9986 ft 285 kts 287°
2026-04-28 21:15 24.34062 55.25229 9686 ft 277 kts 287°
2026-04-28 21:15 24.34674 55.23234 9325 ft 273 kts 287°
2026-04-28 21:16 24.35272 55.21285 8923 ft 266 kts 287°
2026-04-28 21:16 24.35852 55.19392 8536 ft 259 kts 288°
2026-04-28 21:16 24.36419 55.17548 8130 ft 252 kts 288°
2026-04-28 21:16 24.36972 55.15747 7745 ft 246 kts 288°
2026-04-28 21:17 24.37509 55.13981 7381 ft 242 kts 288°
2026-04-28 21:17 24.38043 55.12226 7052 ft 242 kts 289°
2026-04-28 21:17 24.38573 55.10485 6734 ft 241 kts 289°
2026-04-28 21:17 24.39095 55.08769 6468 ft 240 kts 289°
2026-04-28 21:18 24.39624 55.07035 6239 ft 239 kts 289°
2026-04-28 21:18 24.40155 55.05304 5989 ft 239 kts 289°
2026-04-28 21:18 24.40685 55.03575 5778 ft 238 kts 289°
2026-04-28 21:18 24.41118 55.01823 5718 ft 240 kts 277°
2026-04-28 21:19 24.40859 55.00023 5715 ft 243 kts 247°
2026-04-28 21:19 24.39800 54.98577 5729 ft 248 kts 220°
2026-04-28 21:19 24.38358 54.97517 5720 ft 251 kts 213°
2026-04-28 21:19 24.36844 54.96546 5720 ft 252 kts 212°
2026-04-28 21:20 24.35333 54.95585 5705 ft 248 kts 212°
2026-04-28 21:20 24.33895 54.94670 5700 ft 230 kts 212°
2026-04-28 21:20 24.32562 54.93829 5717 ft 212 kts 212°
2026-04-28 21:20 24.31302 54.93037 5726 ft 207 kts 212°
2026-04-28 21:21 24.30053 54.92249 5713 ft 207 kts 213°
2026-04-28 21:21 24.29024 54.91177 5615 ft 205 kts 242°
2026-04-28 21:21 24.28516 54.89749 5424 ft 201 kts 261°
2026-04-28 21:21 24.28233 54.88215 4940 ft 210 kts 263°
2026-04-28 21:22 24.28123 54.86601 4455 ft 215 kts 275°
2026-04-28 21:22 24.28454 54.85017 3994 ft 210 kts 296°
2026-04-28 21:22 24.29208 54.83714 3706 ft 195 kts 315°
2026-04-28 21:22 24.29835 54.83022 3600 ft 193 kts 320°
2026-04-28 21:23 24.31111 54.81695 3302 ft 187 kts 318°
2026-04-28 21:23 24.31986 54.80663 3093 ft 181 kts 315°
2026-04-28 21:23 24.32775 54.79642 2928 ft 171 kts 314°
2026-04-28 21:23 24.33533 54.78656 2678 ft 167 kts 315°
2026-04-28 21:24 24.34282 54.77696 2465 ft 164 kts 315°
2026-04-28 21:24 24.35011 54.76739 2266 ft 162 kts 315°
2026-04-28 21:24 24.35715 54.75776 2010 ft 161 kts 314°
2026-04-28 21:24 24.36383 54.74804 1819 ft 155 kts 313°
2026-04-28 21:25 24.36998 54.73865 1632 ft 146 kts 313°
2026-04-28 21:25 24.37603 54.73027 1493 ft 141 kts 317°
2026-04-28 21:25 24.38233 54.72209 1299 ft 140 kts 317°
2026-04-28 21:25 24.38851 54.71380 1079 ft 141 kts 314°
2026-04-28 21:26 24.39450 54.70520 908 ft 142 kts 313°
2026-04-28 21:26 24.40070 54.69663 748 ft 143 kts 314°
2026-04-28 21:26 24.40682 54.68798 566 ft 143 kts 311°
2026-04-28 21:26 24.41299 54.67934 410 ft 145 kts 310°
2026-04-28 21:27 24.41923 54.67046 232 ft 147 kts 311°
2026-04-28 21:27 24.42550 54.66173 96 ft 141 kts 311°
2026-04-28 21:27 24.43090 54.65426 89 ft 92 kts 308°
2026-04-28 21:27 24.43312 54.65109 89 ft 30 kts 308°
2026-04-28 21:28 24.43456 54.64948 89 ft 29 kts 326°
2026-04-28 21:28 24.43617 54.64866 87 ft 20 kts 338°
2026-04-28 21:28 24.43733 54.64808 87 ft 19 kts 326°
2026-04-28 21:28 24.43821 54.64699 87 ft 20 kts 309°
2026-04-28 21:29 24.43904 54.64582 87 ft 20 kts 308°
2026-04-28 21:29 24.43990 54.64461 88 ft 18 kts 308°
2026-04-28 21:29 24.44062 54.64359 87 ft 16 kts 308°
2026-04-28 21:29 24.44127 54.64311 87 ft 11 kts
2026-04-28 21:30 24.44199 54.64363 88 ft 14 kts 37°
2026-04-28 21:30 24.44267 54.64442 87 ft 14 kts 78°
2026-04-28 21:30 24.44317 54.64534 87 ft 12 kts 41°
2026-04-28 21:30 24.44391 54.64598 86 ft 15 kts 38°
2026-04-28 21:31 24.44478 54.64672 87 ft 15 kts 38°
2026-04-28 21:31 24.44558 54.64726 87 ft 11 kts
2026-04-28 21:31 24.44617 54.64672 87 ft 13 kts 309°
2026-04-28 21:31 24.44677 54.64597 86 ft 13 kts 318°
2026-04-28 21:32 24.44695 54.64551 85 ft 5 kts 239°
2026-04-28 21:32 24.44669 54.64514 84 ft 6 kts 232°
2026-04-28 21:32 24.44656 54.64495 86 ft 0 kts 232°
2026-04-28 21:32 24.44654 54.64492 86 ft 0 kts 232°